03:36
Airports
History
Links
Donate
Help keep this website running!
PayPal
Bitcoin
Information on this page is community maintained and may be outdated or inaccurate and is intended for reference only or PC simulator navigating.
Always use approved charts for navigating.
CYZE
GORE BAY MANITOULIN
GORE BAY MANITOULIN (CYZE)
Gore Bay, Ontario, Canada
(U)
Lat/Lng:45° 53' 7" N / 82° 34' 4" W
45.885278 / -82.567779
Elevation:635'ft 194mMSL
ID / ICAO:CYZE
Runways:1
Longest:(11-29) 1,480.6m 4,858ft Asphalt
Distance To
Airport ID:
Airport Radio Frequencies
AWOS: 128.72
CTAF/UNICOM: 122.8
Nearby VORs <50NM
Nearby NDBs
METARUpdated 06-27-17 03:27 GMT
Altimeter: 29.88
Visibility: 9.0 statute miles
Wind: 7 knots (010°)
Temp: 13°c 55°f
Humidity: 93.6%

METAR: CYZE 270327Z AUTO 01007KT 9SM FEW007 BKN015 OVC021 13/12 A2988 RMK SLP124

(Powered by phpweather)
Runway 11 / 29
Dimensions:1480.6 x 30.5m 4858' x 100'ft
Surface:Asphalt
Edge Lights:Medium intensity
Runway 11 [A]Runway 29 [B]
Heading:097°TH 277°TH
Lat:
Lng:
45° 53' 10"N
82° 34' 38.01"W
45° 53' 4"N
82° 33' 30"W
User Notes and Comments
Google Map
Nearby Airports
(U) ELLIOT LAKE MUNI 32.2 NM
CYEL N
(U) MANITOULIN EAST MUNI 34.3 NM
CYEM E 94°
(U) Killarney 52.0 NM
PT2 E 82°
(U) Thessalon Muni 55.0 NM
PL5 WNW 302°
(U) Drummond Island 57.1 NM
KDRM W 278°
(U) Yacht Haven 57.7 NM
D22 W 279°
(U) TOBERMORY 63.8 NM
CNR4 SE 134°
VFR Chart
Flight Planning at SkyVector.com